WENTIAN

Last updated on Tue Jul 26 2022 00:02:04 GMT+0000 (Coordinated Universal Time)

1 53239U 22085A 22206.52710080 .00011453 00000+0 13399-3 0 9995 2 53239 41.4730 345.4557 0007237 280.5541 163.4622 15.61415122 70762
UTC large
Height (km)
Speed (km/s)
/
Latitude / Longitude
Inclination (degrees)
Orbital Period (minutes)
Azimuth
Elevation
Range (km)
Doppler Factor

Next 0 passes for location: London (51.5072 / 0.1276)

Sorry there are no passes over London.